Location: 22
(39.7117°N, 89.5929°W)
Time: 08:54:24
(UTC-05:00)

S-56A Canister/Altair - Pass Details

Date: 14 February 2023
Orbit: 638 x 2493 km, 38.9° (Epoch: 25 March)

Event Time Altitude Azimuth Distance (km) Brightness Sun altitude
Rises 09:44:28 0° 270° (W) 3,160 10.3 27.1°
Reaches altitude 10° 09:47:00 10° 269° (W) 2,122 9.5 27.4°
Maximum altitude 09:51:39 82° 184° (S) 647 7.8 28.0°
Drops below altitude 10° 09:56:12 10° 96° (E) 2,078 10.5 28.5°
Sets 09:58:39 0° 95° (E) 3,089 11.2 28.8°
